• In Portugal
  • List of Countries
  • For 7 days
  • Water Temperature
  • Satellite Maps
  • Weather Map
  • Weather Widgets
  • user-avatar
    Login

    Hourly Weather Katmandu

    Today, 23 February, Friday

    Time Temperature Precipitation Wind Pressure Humidity
    00:00 +12°C° 0 mm 2 mps 649 mmHg 50%
    01:00 +12°C° 0 mm 2 mps 649 mmHg 49%
    02:00 +10°C° 0 mm 2 mps 649 mmHg 47%
    03:00 +10°C° 0 mm 2 mps 649 mmHg 46%
    04:00 +10°C° 0 mm 2 mps 649 mmHg 44%
    05:00 +10°C° 0 mm 2 mps 649 mmHg 43%
    06:00 +10°C° 0 mm 2 mps 649 mmHg 41%
    07:00 +13°C° 0 mm 2 mps 650 mmHg 38%
    08:00 +15°C° 0 mm 1 mps 651 mmHg 35%
    09:00 +18°C° 0 mm 1 mps 652 mmHg 31%
    10:00 +19°C° 0 mm 1 mps 652 mmHg 31%
    11:00 +20°C° 0 mm 2 mps 652 mmHg 31%
    12:00 +21°C° 0 mm 2 mps 652 mmHg 33%
    13:00 +21°C° 0.1 mm 2 mps 651 mmHg 37%
    14:00 +20°C° 0.1 mm 2 mps 651 mmHg 41%
    15:00 +20°C° 0.1 mm 2 mps 650 mmHg 46%
    16:00 +19°C° 0.1 mm 2 mps 650 mmHg 52%
    17:00 +18°C° 0.1 mm 1 mps 650 mmHg 58%
    18:00 +16°C° 0 mm 1 mps 649 mmHg 65%
    19:00 +15°C° 0 mm 1 mps 650 mmHg 65%
    20:00 +14°C° 0 mm 1 mps 650 mmHg 65%
    21:00 +14°C° 0 mm 2 mps 651 mmHg 66%
    22:00 +13°C° 0 mm 2 mps 651 mmHg 63%
    23:00 +13°C° 0 mm 2 mps 651 mmHg 61%

    Tomorrow, 24 February, Saturday

    Time Temperature Precipitation Wind Pressure Humidity
    00:00 +13°C° 0 mm 2 mps 651 mmHg 58%
    01:00 +13°C° 0 mm 2 mps 651 mmHg 56%
    02:00 +13°C° 0 mm 2 mps 651 mmHg 53%
    03:00 +12°C° 0 mm 2 mps 650 mmHg 50%
    04:00 +12°C° 0 mm 2 mps 651 mmHg 47%
    05:00 +12°C° 0 mm 2 mps 651 mmHg 44%
    06:00 +12°C° 0 mm 2 mps 651 mmHg 41%
    07:00 +14°C° 0 mm 2 mps 652 mmHg 37%
    08:00 +18°C° 0 mm 1 mps 653 mmHg 33%
    09:00 +20°C° 0 mm 1 mps 654 mmHg 28%
    10:00 +21°C° 0 mm 1 mps 655 mmHg 28%
    11:00 +23°C° 0 mm 2 mps 655 mmHg 28%
    12:00 +24°C° 0 mm 2 mps 655 mmHg 28%
    13:00 +24°C° 0 mm 2 mps 654 mmHg 30%
    14:00 +24°C° 0 mm 2 mps 654 mmHg 31%
    15:00 +24°C° 0 mm 2 mps 653 mmHg 32%
    16:00 +21°C° 0.4 mm 2 mps 653 mmHg 40%
    17:00 +20°C° 0.4 mm 2 mps 653 mmHg 47%
    18:00 +19°C° 0.4 mm 1 mps 652 mmHg 55%
    19:00 +16°C° 0.5 mm 1 mps 653 mmHg 56%
    20:00 +15°C° 0.5 mm 2 mps 653 mmHg 57%
    21:00 +14°C° 0.5 mm 2 mps 653 mmHg 58%
    22:00 +14°C° 0 mm 2 mps 653 mmHg 54%
    23:00 +14°C° 0 mm 2 mps 653 mmHg 50%

    Day after tomorrow, 25 February, Sunday

    Time Temperature Precipitation Wind Pressure Humidity
    00:00 +13°C° 0 mm 2 mps 653 mmHg 46%
    01:00 +13°C° 0 mm 2 mps 653 mmHg 43%
    02:00 +12°C° 0 mm 3 mps 652 mmHg 40%
    03:00 +12°C° 0 mm 3 mps 652 mmHg 36%
    04:00 +12°C° 0 mm 3 mps 652 mmHg 35%
    05:00 +13°C° 0 mm 2 mps 652 mmHg 33%
    06:00 +13°C° 0 mm 2 mps 652 mmHg 31%
    07:00 +15°C° 0 mm 2 mps 653 mmHg 30%
    08:00 +18°C° 0 mm 1 mps 654 mmHg 28%
    09:00 +21°C° 0 mm 1 mps 656 mmHg 26%
    10:00 +22°C° 0 mm 1 mps 656 mmHg 26%
    11:00 +23°C° 0 mm 2 mps 656 mmHg 26%
    12:00 +24°C° 0 mm 2 mps 656 mmHg 26%
    13:00 +24°C° 0.1 mm 2 mps 655 mmHg 27%
    14:00 +24°C° 0.1 mm 2 mps 654 mmHg 29%
    15:00 +24°C° 0.1 mm 2 mps 653 mmHg 30%
    16:00 +21°C° 0.3 mm 2 mps 652 mmHg 36%
    17:00 +19°C° 0.3 mm 2 mps 652 mmHg 42%
    18:00 +19°C° 0.3 mm 1 mps 651 mmHg 47%
    19:00 +16°C° 0.4 mm 1 mps 651 mmHg 49%
    20:00 +15°C° 0.4 mm 2 mps 651 mmHg 51%
    21:00 +14°C° 0.4 mm 2 mps 651 mmHg 52%
    22:00 +13°C° 0 mm 2 mps 651 mmHg 50%
    23:00 +13°C° 0 mm 2 mps 651 mmHg 47%

    26 February, Monday

    Time Temperature Precipitation Wind Pressure Humidity
    00:00 +13°C° 0 mm 2 mps 651 mmHg 45%
    01:00 +13°C° 0.1 mm 2 mps 651 mmHg 43%
    02:00 +12°C° 0.1 mm 2 mps 650 mmHg 41%
    03:00 +12°C° 0.1 mm 2 mps 650 mmHg 39%
    04:00 +12°C° 0 mm 2 mps 650 mmHg 37%
    05:00 +12°C° 0 mm 2 mps 650 mmHg 35%
    06:00 +11°C° 0 mm 3 mps 650 mmHg 33%
    07:00 +14°C° 0 mm 2 mps 651 mmHg 30%
    08:00 +17°C° 0 mm 2 mps 653 mmHg 28%
    09:00 +20°C° 0 mm 1 mps 654 mmHg 26%
    10:00 +21°C° 0 mm 1 mps 654 mmHg 26%
    11:00 +23°C° 0 mm 2 mps 654 mmHg 26%
    12:00 +24°C° 0 mm 2 mps 654 mmHg 26%
    13:00 +25°C° 0 mm 2 mps 654 mmHg 27%
    14:00 +25°C° 0 mm 2 mps 653 mmHg 27%
    15:00 +25°C° 0 mm 2 mps 652 mmHg 28%
    16:00 +23°C° 0 mm 2 mps 652 mmHg 34%
    17:00 +21°C° 0 mm 1 mps 651 mmHg 40%
    18:00 +20°C° 0 mm 1 mps 651 mmHg 47%
    19:00 +18°C° 0 mm 1 mps 651 mmHg 48%
    20:00 +16°C° 0 mm 1 mps 652 mmHg 50%
    21:00 +15°C° 0 mm 2 mps 652 mmHg 52%
    22:00 +15°C° 0 mm 2 mps 652 mmHg 52%
    23:00 +14°C° 0 mm 2 mps 652 mmHg 51%

    27 February, Tuesday

    Time Temperature Precipitation Wind Pressure Humidity
    00:00 +14°C° 0 mm 2 mps 652 mmHg 51%
    01:00 +14°C° 0 mm 2 mps 652 mmHg 50%
    02:00 +14°C° 0 mm 2 mps 651 mmHg 49%
    03:00 +14°C° 0 mm 2 mps 651 mmHg 48%
    04:00 +14°C° 0 mm 2 mps 651 mmHg 48%
    05:00 +14°C° 0 mm 2 mps 651 mmHg 47%
    06:00 +13°C° 0 mm 2 mps 651 mmHg 46%
    07:00 +16°C° 0 mm 1 mps 652 mmHg 43%
    08:00 +19°C° 0 mm 1 mps 653 mmHg 39%
    09:00 +22°C° 0 mm 1 mps 655 mmHg 35%
    10:00 +23°C° 0 mm 1 mps 655 mmHg 33%
    11:00 +24°C° 0 mm 2 mps 655 mmHg 31%
    12:00 +26°C° 0 mm 2 mps 655 mmHg 30%
    13:00 +26°C° 0 mm 3 mps 654 mmHg 30%
    14:00 +26°C° 0 mm 3 mps 653 mmHg 31%
    15:00 +26°C° 0 mm 3 mps 653 mmHg 32%
    16:00 +24°C° 0 mm 2 mps 652 mmHg 38%
    17:00 +21°C° 0 mm 2 mps 652 mmHg 45%
    18:00 +21°C° 0 mm 1 mps 651 mmHg 52%
    19:00 +19°C° 0 mm 1 mps 652 mmHg 53%
    20:00 +18°C° 0 mm 1 mps 652 mmHg 55%
    21:00 +16°C° 0 mm 1 mps 652 mmHg 57%
    22:00 +15°C° 0 mm 2 mps 652 mmHg 54%
    23:00 +15°C° 0 mm 2 mps 652 mmHg 51%

    28 February, Wednesday

    Time Temperature Precipitation Wind Pressure Humidity
    00:00 +15°C° 0 mm 2 mps 652 mmHg 48%
    01:00 +15°C° 0 mm 2 mps 651 mmHg 45%
    02:00 +15°C° 0 mm 2 mps 651 mmHg 42%
    03:00 +14°C° 0 mm 2 mps 650 mmHg 39%
    04:00 +14°C° 0 mm 2 mps 650 mmHg 37%
    05:00 +14°C° 0 mm 2 mps 650 mmHg 35%
    06:00 +14°C° 0 mm 2 mps 650 mmHg 33%
    07:00 +16°C° 0 mm 2 mps 652 mmHg 30%
    08:00 +20°C° 0 mm 1 mps 653 mmHg 28%
    09:00 +22°C° 0 mm 1 mps 654 mmHg 25%
    10:00 +24°C° 0 mm 1 mps 654 mmHg 25%
    11:00 +25°C° 0 mm 2 mps 654 mmHg 25%
    12:00 +26°C° 0 mm 2 mps 654 mmHg 24%
    13:00 +26°C° 0 mm 3 mps 653 mmHg 26%
    14:00 +26°C° 0 mm 3 mps 653 mmHg 27%
    15:00 +26°C° 0 mm 3 mps 652 mmHg 29%
    16:00 +24°C° 0.2 mm 2 mps 651 mmHg 35%
    17:00 +21°C° 0.2 mm 2 mps 651 mmHg 42%
    18:00 +21°C° 0.2 mm 1 mps 651 mmHg 49%
    19:00 +19°C° 0.4 mm 1 mps 651 mmHg 51%
    20:00 +17°C° 0.4 mm 2 mps 651 mmHg 52%
    21:00 +16°C° 0.4 mm 2 mps 651 mmHg 54%
    22:00 +15°C° 0 mm 2 mps 651 mmHg 50%
    23:00 +15°C° 0 mm 2 mps 651 mmHg 46%
    Show more